Wetterdaten: aktuell Sonntag, 05.12.2021 03:30
Datum Zeit Temp. A. Feuchte A. Luftdruck Regen Wind Richtung Richtung Taupunkt Windchill Windben
05.12.2021 03:30 1,8 C 93 % 1004,9 hPa 0,0 l/m 12,0 km/h (2 Bft) S 178 0,8 C -2,9 C 19,3 km/h (3 Bft)
05.12.2021 03:25 1,9 C 93 % 1004,9 hPa 0,0 l/m 15,0 km/h (3 Bft) S 169 0,9 C -4,7 C 27,4 km/h (4 Bft)
05.12.2021 03:20 1,9 C 93 % 1005,0 hPa 0,0 l/m 13,6 km/h (3 Bft) SW 226 0,9 C -3,9 C 24,1 km/h (4 Bft)
05.12.2021 03:15 2,0 C 93 % 1005,0 hPa 0,0 l/m 12,7 km/h (3 Bft) S 175 1,0 C -3,2 C 19,3 km/h (3 Bft)
05.12.2021 03:10 2,0 C 93 % 1005,1 hPa 0,0 l/m 10,9 km/h (2 Bft) S-SO 157 1,0 C -1,9 C 22,5 km/h (4 Bft)
05.12.2021 03:05 2,1 C 93 % 1005,1 hPa 0,0 l/m 12,5 km/h (3 Bft) S 184 1,1 C -2,9 C 20,9 km/h (4 Bft)
05.12.2021 03:00 2,1 C 93 % 1005,2 hPa 0,0 l/m 13,4 km/h (3 Bft) S-SW 198 1,1 C -3,5 C 20,9 km/h (4 Bft)
05.12.2021 02:55 2,0 C 93 % 1005,3 hPa 0,0 l/m 15,1 km/h (3 Bft) S-SO 168 1,0 C -4,6 C 25,7 km/h (4 Bft)
05.12.2021 02:50 1,9 C 93 % 1005,4 hPa 0,0 l/m 16,3 km/h (3 Bft) S 186 0,9 C -5,4 C 27,4 km/h (4 Bft)
05.12.2021 02:45 1,9 C 93 % 1005,4 hPa 0,0 l/m 14,7 km/h (3 Bft) S-SW 208 0,9 C -4,5 C 24,1 km/h (4 Bft)
05.12.2021 02:40 1,9 C 93 % 1005,5 hPa 0,0 l/m 16,2 km/h (3 Bft) S 184 0,9 C -5,3 C 22,5 km/h (4 Bft)
05.12.2021 02:35 2,0 C 93 % 1005,5 hPa 0,0 l/m 15,0 km/h (3 Bft) S 182 1,0 C -4,6 C 25,7 km/h (4 Bft)
05.12.2021 02:30 1,9 C 93 % 1005,6 hPa 0,0 l/m 12,8 km/h (3 Bft) S 181 0,9 C -3,3 C 20,9 km/h (4 Bft)
05.12.2021 02:25 1,9 C 93 % 1005,5 hPa 0,0 l/m 15,1 km/h (3 Bft) S-SO 161 0,9 C -4,7 C 20,9 km/h (4 Bft)
05.12.2021 02:20 2,0 C 93 % 1005,5 hPa 0,0 l/m 14,1 km/h (3 Bft) S-SO 159 1,0 C -4,0 C 20,9 km/h (4 Bft)
05.12.2021 02:15 2,1 C 93 % 1005,5 hPa 0,0 l/m 14,4 km/h (3 Bft) S 179 1,1 C -4,1 C 22,5 km/h (4 Bft)
05.12.2021 02:10 2,1 C 93 % 1005,6 hPa 0,0 l/m 15,7 km/h (3 Bft) S 174 1,1 C -4,8 C 22,5 km/h (4 Bft)
05.12.2021 02:05 2,1 C 93 % 1005,5 hPa 0,0 l/m 16,2 km/h (3 Bft) S 182 1,1 C -5,1 C 24,1 km/h (4 Bft)
05.12.2021 02:00 2,2 C 93 % 1005,5 hPa 0,0 l/m 15,8 km/h (3 Bft) S 184 1,2 C -4,8 C 25,7 km/h (4 Bft)
05.12.2021 01:55 2,2 C 93 % 1005,6 hPa 0,0 l/m 16,0 km/h (3 Bft) S-SW 200 1,2 C -4,9 C 27,4 km/h (4 Bft)
05.12.2021 01:50 2,3 C 93 % 1005,7 hPa 0,0 l/m 14,6 km/h (3 Bft) S 170 1,3 C -4,0 C 20,9 km/h (4 Bft)
05.12.2021 01:45 2,3 C 93 % 1005,9 hPa 0,0 l/m 14,0 km/h (3 Bft) S 171 1,3 C -3,6 C 20,9 km/h (4 Bft)
05.12.2021 01:40 2,3 C 93 % 1006,0 hPa 0,0 l/m 14,0 km/h (3 Bft) S 184 1,3 C -3,6 C 30,6 km/h (5 Bft)
05.12.2021 01:35 2,3 C 93 % 1006,0 hPa 0,0 l/m 14,9 km/h (3 Bft) S 175 1,3 C -4,1 C 29,0 km/h (5 Bft)
05.12.2021 01:30 2,3 C 93 % 1005,9 hPa 0,0 l/m 15,5 km/h (3 Bft) S 186 1,3 C -4,5 C 22,5 km/h (4 Bft)
05.12.2021 01:25 2,3 C 93 % 1005,9 hPa 0,0 l/m 15,1 km/h (3 Bft) S 170 1,3 C -4,3 C 29,0 km/h (5 Bft)
05.12.2021 01:20 2,3 C 93 % 1006,1 hPa 0,0 l/m 15,6 km/h (3 Bft) S 185 1,3 C -4,5 C 20,9 km/h (4 Bft)
05.12.2021 01:15 2,3 C 93 % 1006,1 hPa 0,0 l/m 14,0 km/h (3 Bft) S 171 1,3 C -3,6 C 24,1 km/h (4 Bft)
05.12.2021 01:10 2,3 C 93 % 1006,1 hPa 0,0 l/m 15,2 km/h (3 Bft) S 187 1,3 C -4,3 C 33,8 km/h (5 Bft)
05.12.2021 01:05 2,3 C 93 % 1006,1 hPa 0,0 l/m 14,6 km/h (3 Bft) S 180 1,3 C -4,0 C 22,5 km/h (4 Bft)
05.12.2021 01:00 2,2 C 93 % 1006,1 hPa 0,0 l/m 15,9 km/h (3 Bft) S 182 1,2 C -4,8 C 22,5 km/h (4 Bft)
05.12.2021 00:55 2,2 C 93 % 1006,2 hPa 0,0 l/m 15,3 km/h (3 Bft) S 170 1,2 C -4,5 C 24,1 km/h (4 Bft)
05.12.2021 00:50 2,2 C 93 % 1006,2 hPa 0,0 l/m 15,5 km/h (3 Bft) S 179 1,2 C -4,6 C 24,1 km/h (4 Bft)
05.12.2021 00:45 2,2 C 93 % 1006,2 hPa 0,0 l/m 16,4 km/h (3 Bft) S 175 1,2 C -5,1 C 25,7 km/h (4 Bft)
05.12.2021 00:40 2,2 C 93 % 1006,2 hPa 0,0 l/m 18,5 km/h (3 Bft) S 188 1,2 C -6,1 C 29,0 km/h (5 Bft)
05.12.2021 00:35 2,2 C 93 % 1006,3 hPa 0,0 l/m 17,0 km/h (3 Bft) S-SO 165 1,2 C -5,4 C 25,7 km/h (4 Bft)
05.12.2021 00:30 2,1 C 93 % 1006,4 hPa 0,0 l/m 17,7 km/h (3 Bft) S 179 1,1 C -5,9 C 27,4 km/h (4 Bft)
05.12.2021 00:25 2,1 C 93 % 1006,4 hPa 0,0 l/m 16,5 km/h (3 Bft) S 172 1,1 C -5,3 C 29,0 km/h (5 Bft)
05.12.2021 00:20 2,2 C 93 % 1006,4 hPa 0,0 l/m 14,4 km/h (3 Bft) S-SW 197 1,2 C -4,0 C 24,1 km/h (4 Bft)
05.12.2021 00:15 2,2 C 93 % 1006,3 hPa 0,0 l/m 17,0 km/h (3 Bft) S-SO 163 1,2 C -5,4 C 32,2 km/h (5 Bft)
05.12.2021 00:10 2,2 C 93 % 1006,3 hPa 0,0 l/m 17,6 km/h (3 Bft) S 188 1,2 C -5,7 C 27,4 km/h (4 Bft)
05.12.2021 00:05 2,2 C 93 % 1006,4 hPa 0,0 l/m 17,9 km/h (3 Bft) S 177 1,2 C -5,8 C 27,4 km/h (4 Bft)
05.12.2021 00:00 2,3 C 93 % 1006,2 hPa 0,0 l/m 17,5 km/h (3 Bft) S-SW 204 1,3 C -5,5 C 25,7 km/h (4 Bft)
_ Min-Zeit 03:30 00:00 03:25 - 03:10 - - 03:30 00:40 03:15
Minimum _ 1,8 C 93 % 1004,9 hPa - 10,9 km/h (2 Bft) - - 0,8 C -6,1 C 19,3 km/h (3 Bft)
_ Max-Zeit 00:00 00:00 00:05 00:00 00:40 - - 00:00 03:10 01:10
Maximum _ 2,3 C 93 % 1006,4 hPa 0,0 l/m 18,5 km/h
S (3 Bft)
- - 1,3 C -1,9 C 33,8 km/h
S-SO (5 Bft)
Durchschnitt _ 2,1 C 93 % 1005,8 hPa #0,0 l/m 15,2 km/h (3 Bft) S - 1,1 C -4,5 C 24,7 km/h (4 Bft)